Location: Brantley
(31.5822°N, 86.2569°W)
Time: 09:28:16
(UTC+00:00)

Vanguard 1 - All Passes

Search period start: 19 February 2026 00:00
Search period end: 01 March 2026 00:00
Orbit: 652 x 3819 km, 34.3° (Epoch: 17 February)

Date Brightness Start Highest point End Pass type
(mag) Time Alt. Az. Time Alt. Az. Time Alt. Az.
19 Feb - 00:19:55 10° WNW 00:36:21 88° NNE 01:00:19 10° ESE visible
19 Feb - 02:43:09 10° WNW 03:03:20 62° SSW 03:25:21 10° SE visible
19 Feb - 05:11:18 10° W 05:28:05 26° SW 05:43:22 10° S visible
19 Feb - 17:41:53 10° S 17:46:41 20° SE 17:53:24 10° E daylight
19 Feb - 19:58:01 10° WSW 20:06:16 72° SSE 20:22:09 10° ENE daylight
19 Feb - 22:17:56 10° W 22:29:56 81° N 22:51:28 10° E daylight
20 Feb - 00:39:31 10° WNW 00:56:23 86° SSW 01:20:20 10° ESE visible
20 Feb - 03:03:05 10° WNW 03:22:57 53° SW 03:44:11 10° SSE visible
20 Feb - 05:33:45 10° W 05:47:15 19° SW 05:59:45 10° SSW visible
20 Feb - 17:59:45 10° SSW 18:05:23 29° SE 18:14:16 10° E daylight
20 Feb - 20:17:10 10° WSW 20:25:43 84° SSE 20:42:20 10° ENE daylight
20 Feb - 22:37:25 10° W 22:49:55 81° N 23:11:54 10° E daylight
21 Feb - 00:59:06 10° WNW 01:16:20 79° SSW 01:40:08 10° ESE visible
21 Feb - 03:23:15 10° WNW 03:42:27 44° SW 04:02:39 10° SSE visible
21 Feb - 05:59:02 10° WSW 06:06:29 12° SW 06:13:37 10° SSW visible
21 Feb - 18:18:09 10° SSW 18:24:14 40° SE 18:34:38 10° ENE daylight
21 Feb - 20:36:28 10° WSW 20:45:20 88° NNW 21:02:34 10° ENE daylight
21 Feb - 22:56:56 10° W 23:09:54 83° N 23:32:17 10° E daylight
22 Feb - 01:18:43 10° WNW 01:36:11 70° SSW 01:59:39 10° SE visible
22 Feb - 03:43:45 10° W 04:01:53 35° SW 04:20:43 10° SSE visible
22 Feb - 18:36:52 10° SW 18:43:15 54° SSE 18:54:48 10° ENE daylight
22 Feb - 20:55:49 10° W 21:05:04 82° N 21:22:53 10° E daylight
22 Feb - 23:16:25 10° WNW 23:29:51 88° NNE 23:52:34 10° ESE daylight
23 Feb - 01:38:23 10° WNW 01:55:57 62° SSW 02:18:54 10° SE visible
23 Feb - 04:04:49 10° W 04:21:16 27° SW 04:38:10 10° S visible
23 Feb - 16:40:27 10° SSE 16:43:26 14° SE 16:47:05 10° E daylight
23 Feb - 18:55:50 10° SW 19:02:27 69° SSE 19:14:51 10° ENE daylight
23 Feb - 21:15:14 10° W 21:24:50 80° N 21:43:16 10° E daylight
23 Feb - 23:35:53 10° WNW 23:49:45 86° SSW 00:12:42 10° ESE visible
24 Feb - 01:58:12 10° WNW 02:15:39 52° SW 02:37:49 10° SE visible
24 Feb - 04:26:53 10° W 04:40:41 20° SW 04:54:43 10° S visible
24 Feb - 16:57:55 10° S 17:02:11 23° SE 17:08:12 10° E daylight
24 Feb - 19:14:57 10° WSW 19:21:48 82° SSE 19:34:54 10° ENE daylight
24 Feb - 21:34:39 10° W 21:44:40 80° N 22:03:41 10° E daylight
24 Feb - 23:55:22 10° WNW 00:09:36 78° SSW 00:32:36 10° ESE visible
25 Feb - 02:18:13 10° W 02:35:17 43° SW 02:56:21 10° SSE visible
25 Feb - 04:51:11 10° WSW 05:00:10 14° SW 05:09:14 10° SSW visible
25 Feb - 17:16:10 10° SSW 17:21:01 34° SE 17:28:33 10° E daylight
25 Feb - 19:34:12 10° WSW 19:41:19 87° NNW 19:55:01 10° ENE daylight
25 Feb - 21:54:04 10° W 22:04:29 82° N 22:24:05 10° E daylight
26 Feb - 00:14:52 10° WNW 00:29:24 70° SSW 00:52:14 10° SE visible
26 Feb - 02:38:34 10° W 02:54:54 35° SW 03:14:27 10° SSE visible
26 Feb - 17:34:50 10° SW 17:40:02 48° SSE 17:48:36 10° ENE daylight
26 Feb - 19:53:32 10° W 20:00:55 80° N 20:15:11 10° E daylight
26 Feb - 22:13:27 10° WNW 22:24:17 87° NNE 22:44:24 10° ESE daylight
27 Feb - 00:34:27 10° WNW 00:49:10 60° SSW 01:11:33 10° SE visible
27 Feb - 02:59:27 10° W 03:14:30 27° SW 03:31:58 10° S visible
27 Feb - 17:53:46 10° SW 17:59:11 64° SSE 18:08:32 10° ENE daylight
27 Feb - 20:12:54 10° W 20:20:34 77° N 20:35:26 10° E daylight
27 Feb - 22:32:51 10° WNW 22:44:02 86° SSW 23:04:34 10° ESE daylight
28 Feb - 00:54:10 10° WNW 01:08:53 51° SSW 01:30:32 10° SE visible
28 Feb - 03:21:15 10° W 03:34:08 20° SW 03:48:33 10° S visible
28 Feb - 15:56:02 10° S 15:59:14 18° SE 16:03:08 10° E daylight
28 Feb - 18:12:53 10° WSW 18:18:28 81° SSE 18:28:25 10° ENE daylight
28 Feb - 20:32:15 10° W 20:40:15 78° N 20:55:45 10° E daylight
28 Feb - 22:52:15 10° WNW 23:03:46 77° SSW 23:24:31 10° ESE daylight
